Sacramento / Mc Clellan, CA

5:48 PM PST on February 25, 2018 (GMT -0800)
McClellan

Weather History for KMCC - November, 2012

Change the Weather History Date:

Saturday, November 17, 2012

  Actual Average (KMHR) Record (KMHR)
Temperature  
Mean Temperature 58 °F -  
Max Temperature 62 °F 58 °F 75 °F (2008)
Min Temperature 53 °F 40 °F 32 °F (2000)
Degree Days  
Heating Degree Days 8    
Growing Degree Days 8 (Base 50)    
Moisture  
Dew Point 54 °F    
Average Humidity 89    
Maximum Humidity 100    
Minimum Humidity 72    
Precipitation  
Precipitation 0.00 in - - ()
Sea Level Pressure  
Sea Level Pressure 29.91 in    
Wind  
Wind Speed 11 mph ()    
Max Wind Speed 23 mph    
Max Gust Speed 34 mph    
Visibility 5.2 miles    
Events Rain    
Averages and records for this station are not official NWS values.
T = Trace of Precipitation, MM = Missing Value Source: Averaged Metar Reports

Daily Weather History Graph

Daily Weather History Graph

Search for Another Location

Airport or City:

Trip Planner

Search our weather history database for the weather conditions in past years. The results will help you decide how hot, cold, wet, or windy it might be!

Date:

Astronomy

Nov. 17, 2012 Rise Set
Actual Time 6:50 AM PST 4:50 PM PST
Civil Twilight 6:22 AM PST 5:19 PM PST
Nautical Twilight 5:49 AM PST 5:51 PM PST
Astronomical Twilight 5:18 AM PST 6:22 PM PST
Moon 10:39 AM PST (11/17) 9:06 PM PST (11/17)
Length of Visible Light 10h 56m
Length of Day
9h 59m
Waxing Crescent, 21% of the Moon is Illuminated
Nov 17
Waxing Crescent
Nov 20
First Quarter
Nov 28
Full
Dec 6
Last Quarter
Dec 13
New

Hourly Weather History & Observations

Time (PST) Temp. Dew Point Humidity Pressure Visibility Wind Dir Wind Speed Gust Speed Precip Events Conditions
12:10 AM 53.6 °F 53.6 °F 100% 29.91 in 1.0 mi North 4.6 mph - N/A Rain Light Rain
12:30 AM 53.6 °F 53.6 °F 100% 29.91 in 0.8 mi Calm Calm - N/A Rain Light Rain
12:50 AM 53.6 °F 53.6 °F 100% 29.91 in 1.0 mi Calm Calm - N/A Rain Light Rain
1:10 AM 53.6 °F 53.6 °F 100% 29.91 in 1.2 mi SSE 3.5 mph - N/A Rain Light Rain
1:30 AM 55.4 °F 55.4 °F 100% 29.89 in 1.8 mi SE 10.4 mph - N/A Rain Light Rain
1:50 AM 55.4 °F 55.4 °F 100% 29.88 in 5.0 mi SE 11.5 mph - N/A Rain Light Rain
2:10 AM 57.2 °F 55.4 °F 94% 29.89 in 3.0 mi SE 16.1 mph - N/A Rain Light Rain
2:30 AM 57.2 °F 55.4 °F 94% 29.89 in 2.5 mi SE 11.5 mph - N/A Rain Light Rain
2:50 AM 57.2 °F 53.6 °F 88% 29.88 in 4.0 mi SE 16.1 mph 23.0 mph N/A Rain Light Rain
3:10 AM 55.4 °F 53.6 °F 94% 29.88 in 3.0 mi SE 19.6 mph 25.3 mph N/A Rain Light Rain
3:30 AM 55.4 °F 53.6 °F 94% 29.87 in 4.0 mi SE 13.8 mph 20.7 mph N/A Rain Light Rain
3:50 AM 55.4 °F 53.6 °F 94% 29.86 in 3.0 mi SE 11.5 mph - N/A Rain Light Rain
4:10 AM 55.4 °F 53.6 °F 94% 29.86 in 6.0 mi SE 10.4 mph - N/A Rain Light Rain
4:30 AM 57.2 °F 53.6 °F 88% 29.86 in 10.0 mi SE 10.4 mph - N/A   Overcast
4:50 AM 57.2 °F 53.6 °F 88% 29.86 in 3.0 mi SE 10.4 mph - N/A Rain Light Rain
5:10 AM 57.2 °F 53.6 °F 88% 29.86 in 10.0 mi SE 10.4 mph - N/A   Overcast
5:30 AM 57.2 °F 53.6 °F 88% 29.86 in 10.0 mi SE 11.5 mph - N/A   Overcast
5:50 AM 57.2 °F 53.6 °F 88% 29.86 in 10.0 mi SE 13.8 mph 18.4 mph N/A   Mostly Cloudy
6:10 AM 57.2 °F 53.6 °F 88% 29.85 in 10.0 mi SE 13.8 mph 19.6 mph N/A   Mostly Cloudy
6:30 AM 59.0 °F 53.6 °F 82% 29.85 in 10.0 mi SSE 21.9 mph 27.6 mph N/A   Mostly Cloudy
6:50 AM 57.2 °F 53.6 °F 88% 29.85 in 4.0 mi SE 21.9 mph 31.1 mph N/A Rain Light Rain
7:10 AM 57.2 °F 53.6 °F 88% 29.86 in 3.0 mi SE 19.6 mph 25.3 mph N/A Rain Light Rain
7:30 AM 57.2 °F 53.6 °F 88% 29.86 in 10.0 mi SSE 16.1 mph 25.3 mph N/A   Overcast
7:50 AM 57.2 °F 53.6 °F 88% 29.87 in 1.8 mi SSE 23.0 mph 27.6 mph N/A Rain Light Rain
8:10 AM 57.2 °F 53.6 °F 88% 29.89 in 3.0 mi South 11.5 mph 24.2 mph N/A Rain Light Rain
8:30 AM 57.2 °F 55.4 °F 94% 29.89 in 1.2 mi SSE 19.6 mph 29.9 mph N/A Rain Light Rain
8:50 AM 57.2 °F 55.4 °F 94% 29.89 in 1.2 mi SSE 17.3 mph 27.6 mph N/A Rain Light Rain
9:10 AM 57.2 °F 55.4 °F 94% 29.90 in 1.0 mi South 21.9 mph 26.5 mph N/A Rain Light Rain
9:30 AM 57.2 °F 55.4 °F 94% 29.90 in 6.0 mi South 18.4 mph 24.2 mph N/A   Overcast
9:50 AM 59.0 °F 55.4 °F 88% 29.90 in 8.0 mi SSE 23.0 mph 34.5 mph N/A   Overcast
10:10 AM 57.2 °F 55.4 °F 94% 29.91 in 1.0 mi SSE 23.0 mph 29.9 mph N/A Rain Light Rain
10:30 AM 57.2 °F 55.4 °F 94% 29.92 in 0.8 mi South 19.6 mph 27.6 mph N/A Rain Light Rain
10:50 AM 57.2 °F 55.4 °F 94% 29.92 in 0.8 mi SSE 19.6 mph 24.2 mph N/A Rain Light Rain
11:10 AM 57.2 °F 55.4 °F 94% 29.92 in 0.8 mi South 19.6 mph 25.3 mph N/A Rain Light Rain
11:30 AM 57.2 °F 55.4 °F 94% 29.92 in 1.0 mi South 16.1 mph 26.5 mph N/A Rain Light Rain
11:50 AM 57.2 °F 55.4 °F 94% 29.92 in 1.0 mi South 15.0 mph 24.2 mph N/A Rain Light Rain
12:10 PM 57.2 °F 55.4 °F 94% 29.92 in 1.5 mi SSE 20.7 mph - N/A Rain Light Rain
12:30 PM 57.2 °F 55.4 °F 94% 29.92 in 1.2 mi South 13.8 mph - N/A Rain Light Rain
12:50 PM 57.2 °F 55.4 °F 94% 29.92 in 1.0 mi South 13.8 mph - N/A Rain Light Rain
1:10 PM 57.2 °F 55.4 °F 94% 29.92 in 0.8 mi South 11.5 mph 17.3 mph N/A Rain Light Rain
1:30 PM 59.0 °F 57.2 °F 94% 29.91 in 1.8 mi SSE 10.4 mph - N/A Rain Light Rain
1:50 PM 59.0 °F 59.0 °F 100% 29.90 in 10.0 mi SSE 15.0 mph - N/A   Mostly Cloudy
2:10 PM 59.0 °F 57.2 °F 94% 29.90 in 10.0 mi South 11.5 mph - N/A   Partly Cloudy
2:30 PM 60.8 °F 57.2 °F 88% 29.90 in 10.0 mi South 10.4 mph - N/A   Mostly Cloudy
2:50 PM 60.8 °F 55.4 °F 82% 29.90 in 10.0 mi South 9.2 mph - N/A   Mostly Cloudy
3:10 PM 60.8 °F 55.4 °F 82% 29.91 in 10.0 mi South 12.7 mph 20.7 mph N/A   Mostly Cloudy
3:30 PM 62.6 °F 55.4 °F 77% 29.91 in 10.0 mi South 11.5 mph 21.9 mph N/A   Mostly Cloudy
3:50 PM 60.8 °F 53.6 °F 77% 29.91 in 10.0 mi SSW 15.0 mph 25.3 mph N/A   Partly Cloudy
4:10 PM 59.0 °F 53.6 °F 82% 29.91 in 10.0 mi SSW 11.5 mph - N/A   Partly Cloudy
4:30 PM 59.0 °F 51.8 °F 77% 29.91 in 10.0 mi South 13.8 mph 19.6 mph N/A   Clear
4:50 PM 59.0 °F 50.0 °F 72% 29.92 in 10.0 mi South 8.1 mph 19.6 mph N/A   Clear
5:10 PM 59.0 °F 50.0 °F 72% 29.92 in 10.0 mi South 12.7 mph 17.3 mph N/A   Clear
5:30 PM 57.2 °F 50.0 °F 77% 29.93 in 10.0 mi SSE 10.4 mph - N/A   Clear
5:50 PM 57.2 °F 50.0 °F 77% 29.93 in 10.0 mi SSE 8.1 mph - N/A   Clear
6:10 PM 57.2 °F 51.8 °F 82% 29.93 in 10.0 mi SE 11.5 mph - N/A   Clear
6:30 PM 57.2 °F 50.0 °F 77% 29.94 in 10.0 mi SE 8.1 mph - N/A   Partly Cloudy
6:50 PM 57.2 °F 50.0 °F 77% 29.95 in 10.0 mi SSE 9.2 mph - N/A   Scattered Clouds
7:10 PM 57.2 °F 50.0 °F 77% 29.95 in 10.0 mi SSE 10.4 mph - N/A   Mostly Cloudy
7:30 PM 57.2 °F 50.0 °F 77% 29.95 in 7.0 mi SSE 9.2 mph - N/A Rain Light Rain
7:50 PM 55.4 °F 51.8 °F 88% 29.96 in 3.0 mi SSE 6.9 mph - N/A Rain Light Rain
8:10 PM 55.4 °F 51.8 °F 88% 29.96 in 10.0 mi SSE 9.2 mph - N/A   Mostly Cloudy
8:30 PM 55.4 °F 50.0 °F 82% 29.96 in 5.0 mi SSE 11.5 mph - N/A Rain Light Rain
8:50 PM 55.4 °F 50.0 °F 82% 29.97 in 4.0 mi SSE 15.0 mph - N/A Rain Light Rain
9:10 PM 55.4 °F 51.8 °F 88% 29.97 in 4.0 mi SSE 10.4 mph - N/A Rain Light Rain
9:30 PM 55.4 °F 51.8 °F 88% 29.97 in 5.0 mi SE 11.5 mph - N/A Rain Light Rain
9:50 PM 55.4 °F 51.8 °F 88% 29.98 in 3.0 mi SSE 10.4 mph - N/A Rain Light Rain
10:10 PM 55.4 °F 51.8 °F 88% 29.98 in 2.0 mi SSE 13.8 mph 19.6 mph N/A Rain Light Rain
10:30 PM 55.4 °F 53.6 °F 94% 29.98 in 3.0 mi SSE 5.8 mph - N/A Rain Light Rain
10:50 PM 55.4 °F 53.6 °F 94% 30.00 in 4.0 mi SSW 5.8 mph - N/A Rain Light Rain
11:10 PM 55.4 °F 53.6 °F 94% 30.00 in 1.2 mi SW 4.6 mph - N/A Rain Light Rain
11:30 PM 55.4 °F 53.6 °F 94% 30.01 in 1.8 mi SW 4.6 mph - N/A Rain Light Rain
11:50 PM 55.4 °F 53.6 °F 94% 30.01 in 1.8 mi SW 6.9 mph - N/A Rain Light Rain